This is the latest recevied weather packets stored in our database for station/object F4IVW-13. If no packets are shown the sender has not sent any weather packets the latest 10 day(s).
| Time | Temp. | Humidity | Pressure | Rain* | Wind** | Luminosity | Snow |
|---|---|---|---|---|---|---|---|
| 1777481417 | 23.33° C | 99% | 1010.1 hPa | 0 mm | - | 1 W/m² | - |
| 1777481108 | 24.44° C | 99% | 1010.1 hPa | 0 mm | - | 2 W/m² | - |
| 1777480782 | 23.89° C | 99% | 1010 hPa | 0 mm | - | 3 W/m² | - |
| 1777480465 | 23.89° C | 99% | 1010 hPa | 0 mm | - | 3 W/m² | - |
| 1777480148 | 23.89° C | 99% | 1010 hPa | 0 mm | - | 2 W/m² | - |
| 1777479831 | 22.78° C | 99% | 1010 hPa | 0 mm | - | 4 W/m² | - |
| 1777479514 | 22.78° C | 99% | 1010.1 hPa | 0 mm | - | 5 W/m² | - |
| 1777479206 | 22.78° C | 99% | 1010.1 hPa | 0 mm | - | 4 W/m² | - |
| 1777478880 | 22.78° C | 99% | 1010.1 hPa | 0 mm | - | 4 W/m² | - |
| 1777478560 | 22.78° C | 99% | 1010.2 hPa | 0 mm | - | 5 W/m² | - |
| 1777478246 | 22.78° C | 99% | 1010.2 hPa | 0 mm | - | 5 W/m² | - |
| 1777477925 | 22.78° C | 99% | 1010.2 hPa | 0 mm | - | 5 W/m² | - |
| 1777477608 | 22.78° C | 99% | 1010.2 hPa | 0 mm | - | 5 W/m² | - |
| 1777477299 | 23.33° C | 99% | 1010.2 hPa | 0 mm | - | 6 W/m² | - |
| 1777476973 | 23.33° C | 99% | 1010.2 hPa | 0 mm | - | 4 W/m² | - |
| 1777476654 | 23.33° C | 99% | 1010.1 hPa | 0 mm | - | 5 W/m² | - |
| 1777476337 | 22.78° C | 99% | 1010.2 hPa | 0 mm | - | 6 W/m² | - |
| 1777476022 | 22.78° C | 99% | 1010.3 hPa | 0 mm | - | 8 W/m² | - |
| 1777475705 | 22.78° C | 99% | 1010.4 hPa | 0 mm | - | 6 W/m² | - |
| 1777475396 | 22.78° C | 99% | 1010.5 hPa | 0 mm | - | 7 W/m² | - |
| 1777475067 | 22.78° C | 99% | 1010.5 hPa | 0 mm | - | 10 W/m² | - |
| 1777474750 | 22.78° C | 99% | 1010.5 hPa | 0 mm | - | 11 W/m² | - |
| 1777474433 | 22.78° C | 99% | 1010.5 hPa | 0 mm | - | 12 W/m² | - |
| 1777474118 | 22.22° C | 99% | 1010.4 hPa | 0 mm | - | 11 W/m² | - |
| 1777473798 | 21.67° C | 99% | 1010.4 hPa | 0 mm | - | 12 W/m² | - |
* Rain latest hour (hover to see other rain measurements)
** Current wind speed in m/s (hover to see current wind gust speed)